Location: Banios
(43.0451°N, 0.2335°E)
Time: 05:47:34
(UTC+00:00)

N. Korean satellite - Pass Details

Date: 04 December 2021
Orbit: 447 x 491 km, 97.3° (Epoch: 25 January)

Event Time Altitude Azimuth Distance (km) Brightness Sun altitude
Rises 06:23:35 0° 351° (N) 2,465 9.8 -9.1°
Reaches altitude 10° 06:26:32 10° 322° (NW) 1,583 8.6 -8.6°
Maximum altitude 06:28:06 13° 294° (WNW) 1,414 8.2 -8.3°
Drops below altitude 10° 06:29:40 10° 267° (W) 1,575 8.6 -8.1°
Sets 06:32:35 0° 237° (WSW) 2,440 9.8 -7.6°
